Hundvaag 1 weather for May 1988
Month no. 11
Obs.
Da.
Temp. Dew Point Precip. Wind
Speed
Wind gusts Cloud cover Press. Humidity Wind dir. Sunny OPT
01.05.1988 5,3   1,6             1  
02.05.1988 9,0   0,9             1  
03.05.1988 8,5   7,0             1  
04.05.1988 6,9   9,0                
05.05.1988 7,3   2,1             1  
06.05.1988 6,7   0,3             1  
07.05.1988 8,8   0,0             1  
08.05.1988 12,3   0,0             1  
09.05.1988 11,9   0,0                
10.05.1988 10,7   0,0                
11.05.1988 8,2   0,0             1  
12.05.1988 14,7   0,0             1  
13.05.1988 11,9   0,0             1  
14.05.1988 14,4   0,0             1  
15.05.1988 12,1   0,0             1  
16.05.1988 10,4   0,0             1  
17.05.1988 6,1   0,1             1  
18.05.1988 6,5   2,3             1  
19.05.1988 6,3   0,0             1  
20.05.1988 6,1   3,5             1  
21.05.1988 6,4   0,0             1  
22.05.1988 9,9   0,0             1  
23.05.1988 10,4   0,0             1  
24.05.1988 12,3   0,0             1  
25.05.1988 10,8   0,7                
26.05.1988 14,1   0,9             1  
27.05.1988 16,8   0,1             1  
28.05.1988 16,0   2,0             1  
29.05.1988 17,4   13,5                
30.05.1988 11,6   8,2             1  
31.05.1988 11,9   0,0             1  
Avrg/Sum 10,4   52,2             26